M I D A S
Marine Information and Data Acquisition System
Tripno 229 of the Zeeleeuw from 2002-03-25 07:38:32 to 2002-03-25 15:12:41
Back to CruiseResearch ActivitiesStationsMapUnderway DataData graphs

EquipmentUnitsComments
TimeDGPSUTC
LatitudeDGPSDM.mWGS84
LongitudeDGPSDM.mWGS84
SpeedMeteo Stationm/sRelative wind speed
DirectionMeteo StationdegRelative wind direction
TemperatureMeteo Stationdeg CelciusAir temperature
PressureMeteo StationPaAtmospheric pressure
HumidityMeteo Station%Relative humidity
Missing or incorrect values are displayed as -999
Metereological data collected by the RV Zeeleeuw from 2002-03-25 07:38:32 to 2002-03-25 15:12:41
                                                                                    Next 1000 lines
Time Latitude Longitude Speed Direction Temperature Pressure Humidity
2002-03-25 07:38:40 51°13.694 2°55.734 1.9 150 4.3 103040 73
2002-03-25 07:38:45 51°13.698 2°55.735 1.4 180 4.3 103040 73
2002-03-25 07:38:50 51°13.704 2°55.734 1.6 179 4.3 103040 73
2002-03-25 07:38:55 51°13.711 2°55.733 1.7 177 4.3 103040 73
2002-03-25 07:39:00 51°13.718 2°55.729 1.7 175 4.3 103040 73
2002-03-25 07:39:05 51°13.726 2°55.725 1.3 197 4.3 103040 73
2002-03-25 07:39:10 51°13.734 2°55.718 1.4 196 4.3 103040 73
2002-03-25 07:39:15 51°13.742 2°55.711 2.4 209 4.3 103040 73
2002-03-25 07:39:20 51°13.751 2°55.703 2.2 200 4.3 103040 73
2002-03-25 07:39:25 51°13.761 2°55.695 2.5 211 4.3 103040 73
2002-03-25 07:39:29 51°13.769 2°55.688 2.2 208 4.3 103040 73
2002-03-25 07:39:35 51°13.781 2°55.677 2.6 217 4.3 103040 73
2002-03-25 07:39:40 51°13.791 2°55.668 2.6 220 4.3 103040 73
2002-03-25 07:39:45 51°13.802 2°55.659 3.6 224 4.3 103040 73
2002-03-25 07:39:50 51°13.813 2°55.65 3.2 224 4.3 103040 73
2002-03-25 07:39:55 51°13.824 2°55.641 2.7 216 4.3 103040 73
2002-03-25 07:40:00 51°13.835 2°55.631 2.9 216 4.2 103040 73
2002-03-25 07:40:06 51°13.849 2°55.62 2.9 216 4.2 103040 73
2002-03-25 07:40:11 51°13.861 2°55.61 3.1 226 4.3 103040 74
2002-03-25 07:40:15 51°13.87 2°55.603 3.3 219 4.3 103040 74
2002-03-25 07:40:20 51°13.882 2°55.593 3.1 216 4.3 103040 74
2002-03-25 07:40:26 51°13.896 2°55.582 3.6 224 4.3 103040 74
2002-03-25 07:40:30 51°13.906 2°55.575 3.5 211 4.3 103040 74
2002-03-25 07:40:36 51°13.921 2°55.563 3 216 4.3 103040 74
2002-03-25 07:40:41 51°13.933 2°55.554 3 222 4.3 103040 74
2002-03-25 07:40:45 51°13.943 2°55.547 3.2 229 4.3 103040 74
2002-03-25 07:40:50 51°13.955 2°55.537 3.6 226 4.3 103040 74
2002-03-25 07:40:55 51°13.967 2°55.528 3.3 230 4.3 103040 74
2002-03-25 07:41:00 51°13.98 2°55.52 3.3 230 4.3 103040 73
2002-03-25 07:41:05 51°13.992 2°55.511 3.5 232 4.3 103040 73
2002-03-25 07:41:10 51°14.005 2°55.502 3.5 229 4.3 103040 73
2002-03-25 07:41:16 51°14.02 2°55.492 3 217 4.3 103040 73
2002-03-25 07:41:21 51°14.032 2°55.484 3.2 211 4.3 103040 73
2002-03-25 07:41:25 51°14.042 2°55.477 3 209 4.3 103040 73
2002-03-25 07:41:30 51°14.055 2°55.468 2.9 210 4.3 103040 73
2002-03-25 07:41:36 51°14.07 2°55.457 2.9 213 4.3 103040 73
2002-03-25 07:41:41 51°14.082 2°55.448 3 216 4.3 103040 74
2002-03-25 07:41:46 51°14.094 2°55.439 2.5 210 4.3 103040 74
2002-03-25 07:41:51 51°14.106 2°55.429 2.6 216 4.3 103040 74
2002-03-25 07:41:55 51°14.116 2°55.421 2.3 219 4.3 103040 74
2002-03-25 07:42:00 51°14.128 2°55.412 2.5 225 4.3 103040 74
2002-03-25 07:42:05 51°14.141 2°55.402 2.4 233 4.3 103040 74
2002-03-25 07:42:11 51°14.155 2°55.389 2.5 231 4.3 103040 73
2002-03-25 07:42:16 51°14.167 2°55.378 2.1 225 4.3 103040 73
2002-03-25 07:42:20 51°14.176 2°55.369 2.1 222 4.3 103040 73
2002-03-25 07:42:25 51°14.187 2°55.358 1.8 223 4.3 103040 73
2002-03-25 07:42:30 51°14.198 2°55.345 1.8 224 4.3 103040 73
2002-03-25 07:42:35 51°14.209 2°55.333 2.2 233 4.3 103040 73
2002-03-25 07:42:40 51°14.22 2°55.32 2.3 233 4.3 103040 73
2002-03-25 07:42:45 51°14.23 2°55.307 2.2 227 4.3 103040 73
2002-03-25 07:42:50 51°14.241 2°55.293 2.5 231 4.3 103040 73
2002-03-25 07:42:56 51°14.252 2°55.275 2.1 222 4.3 103040 73
2002-03-25 07:43:00 51°14.26 2°55.263 2.3 221 4.3 103040 73
2002-03-25 07:43:05 51°14.269 2°55.248 2.3 227 4.3 103040 73
2002-03-25 07:43:09 51°14.276 2°55.235 2.2 238 4.3 103040 73
2002-03-25 07:43:15 51°14.286 2°55.215 2 231 4.3 103040 73
2002-03-25 07:43:20 51°14.295 2°55.199 2 228 4.3 103040 73
2002-03-25 07:43:25 51°14.304 2°55.182 2.4 230 4.3 103040 73
2002-03-25 07:43:31 51°14.314 2°55.162 2.4 225 4.3 103040 73
2002-03-25 07:43:35 51°14.321 2°55.149 2.4 230 4.3 103040 73
2002-03-25 07:43:40 51°14.329 2°55.132 2.3 231 4.3 103040 73
2002-03-25 07:43:45 51°14.338 2°55.116 2.1 233 4.3 103040 73
2002-03-25 07:43:50 51°14.347 2°55.1 1.9 234 4.3 103040 73
2002-03-25 07:43:55 51°14.357 2°55.085 2.2 213 4.3 103040 73
2002-03-25 07:44:00 51°14.367 2°55.07 2.2 216 4.4 103040 73
2002-03-25 07:44:06 51°14.382 2°55.053 3 207 4.4 103040 73
2002-03-25 07:44:11 51°14.395 2°55.04 3.1 209 4.3 103040 73
2002-03-25 07:44:16 51°14.409 2°55.026 3.5 209 4.3 103040 73
2002-03-25 07:44:20 51°14.42 2°55.016 3.2 206 4.4 103040 73
2002-03-25 07:44:25 51°14.434 2°55.002 3.8 209 4.4 103040 73
2002-03-25 07:44:30 51°14.448 2°54.988 3.4 207 4.3 103040 73
2002-03-25 07:44:35 51°14.461 2°54.974 3.7 207 4.3 103040 73
2002-03-25 07:44:41 51°14.478 2°54.957 3 210 4.4 103040 73
2002-03-25 07:44:46 51°14.492 2°54.944 3.5 212 4.4 103040 73
2002-03-25 07:44:51 51°14.506 2°54.93 4.2 212 4.4 103040 73
2002-03-25 07:44:55 51°14.517 2°54.918 4 209 4.4 103040 73
2002-03-25 07:45:00 51°14.53 2°54.904 3.7 208 4.4 103040 73
2002-03-25 07:45:05 51°14.544 2°54.889 3.6 210 4.4 103040 73
2002-03-25 07:45:11 51°14.56 2°54.872 3.6 209 4.4 103040 74
2002-03-25 07:45:16 51°14.574 2°54.857 3.5 204 4.4 103040 74
2002-03-25 07:45:20 51°14.585 2°54.846 3.6 207 4.4 103040 74
2002-03-25 07:45:26 51°14.602 2°54.829 3.5 210 4.4 103040 74
2002-03-25 07:45:30 51°14.613 2°54.818 3.6 203 4.3 103040 73
2002-03-25 07:45:35 51°14.627 2°54.804 3.5 208 4.3 103040 73
2002-03-25 07:45:41 51°14.643 2°54.786 3.5 210 4.3 103040 73
2002-03-25 07:45:45 51°14.654 2°54.773 3.1 216 4.3 103040 73
2002-03-25 07:45:51 51°14.67 2°54.754 3.5 219 4.3 103040 73
2002-03-25 07:45:55 51°14.68 2°54.74 3.2 222 4.3 103040 73
2002-03-25 07:46:00 51°14.693 2°54.723 3 214 4.3 103040 73
2002-03-25 07:46:05 51°14.705 2°54.706 3.2 221 4.3 103040 73
2002-03-25 07:46:10 51°14.718 2°54.688 3.3 213 4.3 103040 73
2002-03-25 07:46:15 51°14.731 2°54.671 3.5 217 4.3 103040 73
2002-03-25 07:46:20 51°14.745 2°54.654 3.3 216 4.3 103040 73
2002-03-25 07:46:26 51°14.761 2°54.635 3.4 212 4.3 103040 73
2002-03-25 07:46:31 51°14.775 2°54.619 3.7 211 4.3 103040 74
2002-03-25 07:46:36 51°14.79 2°54.603 3.6 215 4.3 103040 74
2002-03-25 07:46:40 51°14.801 2°54.589 3.8 216 4.3 103040 73
2002-03-25 07:46:45 51°14.815 2°54.573 3.6 219 4.3 103040 73
2002-03-25 07:46:49 51°14.826 2°54.559 3.6 216 4.3 103040 74
2002-03-25 07:46:56 51°14.845 2°54.536 3.9 217 4.3 103040 74
2002-03-25 07:47:00 51°14.856 2°54.522 3.7 222 4.4 103040 74
2002-03-25 07:47:06 51°14.873 2°54.501 3.8 220 4.4 103040 74
2002-03-25 07:47:11 51°14.887 2°54.483 3.6 221 4.4 103040 74
2002-03-25 07:47:15 51°14.899 2°54.469 4.4 226 4.4 103040 74
2002-03-25 07:47:20 51°14.913 2°54.45 3.9 222 4.4 103040 74
2002-03-25 07:47:25 51°14.927 2°54.433 3.8 225 4.4 103040 74
2002-03-25 07:47:31 51°14.944 2°54.41 3.8 232 4.4 103040 74
2002-03-25 07:47:35 51°14.956 2°54.397 4.3 227 4.4 103040 74
2002-03-25 07:47:41 51°14.973 2°54.373 3.8 228 4.4 103040 74
2002-03-25 07:47:45 51°14.986 2°54.36 4.1 224 4.4 103040 74
2002-03-25 07:47:51 51°15.003 2°54.337 4 230 4.4 103040 74
2002-03-25 07:47:56 51°15.019 2°54.321 4.2 225 4.4 103040 74
2002-03-25 07:48:01 51°15.033 2°54.303 4.1 225 4.4 103040 74
2002-03-25 07:48:06 51°15.05 2°54.288 4.1 218 4.4 103040 74
2002-03-25 07:48:11 51°15.065 2°54.27 3.6 225 4.4 103050 73
2002-03-25 07:48:16 51°15.082 2°54.256 4.6 221 4.4 103050 73
2002-03-25 07:48:20 51°15.095 2°54.243 4.6 225 4.4 103040 74
2002-03-25 07:48:26 51°15.115 2°54.227 4.4 219 4.4 103040 74
2002-03-25 07:48:30 51°15.129 2°54.214 4.9 226 4.4 103040 74
2002-03-25 07:48:35 51°15.145 2°54.201 4.6 216 4.4 103040 74
2002-03-25 07:48:40 51°15.163 2°54.186 4.4 226 4.4 103050 74
2002-03-25 07:48:45 51°15.18 2°54.173 4.7 213 4.4 103050 74
2002-03-25 07:48:50 51°15.197 2°54.158 4.2 316 4.5 103040 74
2002-03-25 07:48:55 51°15.214 2°54.144 4.3 212 4.5 103040 74
2002-03-25 07:49:00 51°15.231 2°54.131 3.9 223 4.5 103040 74
2002-03-25 07:49:05 51°15.248 2°54.116 4.7 210 4.5 103040 74
2002-03-25 07:49:11 51°15.268 2°54.099 4.3 219 4.5 103040 74
2002-03-25 07:49:16 51°15.285 2°54.085 4.4 209 4.5 103040 74
2002-03-25 07:49:21 51°15.302 2°54.071 4.6 219 4.4 103050 74
2002-03-25 07:49:25 51°15.315 2°54.058 4.6 210 4.4 103050 74
2002-03-25 07:49:31 51°15.335 2°54.042 4 219 4.4 103040 73
2002-03-25 07:49:35 51°15.348 2°54.029 4.6 206 4.4 103040 73
2002-03-25 07:49:40 51°15.365 2°54.015 4.5 216 4.5 103040 73
2002-03-25 07:49:45 51°15.381 2°53.999 4.6 211 4.5 103040 73
2002-03-25 07:49:51 51°15.402 2°53.983 4.2 212 4.4 103040 72
2002-03-25 07:49:55 51°15.414 2°53.969 4.3 211 4.4 103040 72
2002-03-25 07:50:00 51°15.432 2°53.956 4.7 212 4.4 103050 73
2002-03-25 07:50:05 51°15.447 2°53.939 4.3 212 4.4 103050 73
2002-03-25 07:50:09 51°15.461 2°53.928 4.3 205 4.4 103040 72
2002-03-25 07:50:15 51°15.48 2°53.908 5.2 219 4.4 103040 72
2002-03-25 07:50:20 51°15.496 2°53.894 5 216 4.4 103040 72
2002-03-25 07:50:25 51°15.512 2°53.877 4.5 220 4.4 103040 72
2002-03-25 07:50:31 51°15.532 2°53.86 5.2 216 4.5 103040 73
2002-03-25 07:50:35 51°15.545 2°53.846 4.8 224 4.5 103040 73
2002-03-25 07:50:40 51°15.562 2°53.832 4.7 215 4.5 103040 74
2002-03-25 07:50:45 51°15.578 2°53.816 4.7 225 4.5 103040 74
2002-03-25 07:50:50 51°15.594 2°53.8 4.6 217 4.5 103040 74
2002-03-25 07:50:55 51°15.611 2°53.785 5.1 223 4.5 103040 74
2002-03-25 07:51:00 51°15.627 2°53.77 5.2 218 4.5 103040 74
2002-03-25 07:51:05 51°15.644 2°53.755 4.9 228 4.5 103040 74
2002-03-25 07:51:10 51°15.66 2°53.739 4.6 222 4.5 103040 73
2002-03-25 07:51:15 51°15.677 2°53.725 4.3 229 4.5 103040 73
2002-03-25 07:51:20 51°15.694 2°53.709 4.4 217 4.5 103040 74
2002-03-25 07:51:25 51°15.711 2°53.696 2.6 225 4.5 103040 74
2002-03-25 07:51:30 51°15.727 2°53.681 4.5 215 4.5 103040 74
2002-03-25 07:51:35 51°15.745 2°53.669 4.1 223 4.5 103040 74
2002-03-25 07:51:40 51°15.761 2°53.653 3.9 218 4.5 103040 74
2002-03-25 07:51:45 51°15.779 2°53.641 4 220 4.5 103040 74
2002-03-25 07:51:49 51°15.792 2°53.628 4.1 217 4.5 103040 74
2002-03-25 07:51:56 51°15.817 2°53.61 4.6 219 4.5 103040 74
2002-03-25 07:52:00 51°15.83 2°53.597 4.1 223 4.6 103040 75
2002-03-25 07:52:06 51°15.851 2°53.583 4.7 218 4.6 103040 75
2002-03-25 07:52:10 51°15.864 2°53.569 4.4 218 4.6 103050 75
2002-03-25 07:52:15 51°15.881 2°53.557 4.3 216 4.6 103050 75
2002-03-25 07:52:20 51°15.897 2°53.541 4 226 4.6 103040 75
2002-03-25 07:52:25 51°15.915 2°53.528 4.6 220 4.6 103040 75
2002-03-25 07:52:31 51°15.935 2°53.51 4.2 224 4.6 103040 75
2002-03-25 07:52:36 51°15.952 2°53.497 4.8 212 4.6 103040 75
2002-03-25 07:52:40 51°15.965 2°53.485 4.2 222 4.6 103050 75
2002-03-25 07:52:45 51°15.982 2°53.471 4.2 209 4.6 103050 75
2002-03-25 07:52:51 51°16.002 2°53.454 4.3 219 4.6 103050 75
2002-03-25 07:52:56 51°16.019 2°53.44 4.5 208 4.6 103050 75
2002-03-25 07:53:00 51°16.033 2°53.429 3.8 220 4.6 103040 74
2002-03-25 07:53:05 51°16.049 2°53.413 4.1 207 4.6 103040 74
2002-03-25 07:53:10 51°16.067 2°53.401 4.2 212 4.6 103050 75
2002-03-25 07:53:15 51°16.083 2°53.384 4.3 208 4.6 103050 75
2002-03-25 07:53:20 51°16.1 2°53.372 4.5 212 4.6 103050 75
2002-03-25 07:53:25 51°16.116 2°53.356 4.5 210 4.6 103050 75
2002-03-25 07:53:31 51°16.137 2°53.341 4.7 211 4.6 103040 75
2002-03-25 07:53:35 51°16.15 2°53.328 4.8 211 4.6 103040 75
2002-03-25 07:53:40 51°16.168 2°53.316 4.9 210 4.5 103040 74
2002-03-25 07:53:45 51°16.184 2°53.3 4.4 214 4.5 103040 74
2002-03-25 07:53:50 51°16.201 2°53.287 4.9 208 4.5 103040 74
2002-03-25 07:53:56 51°16.222 2°53.269 5.2 216 4.5 103040 74
2002-03-25 07:54:01 51°16.239 2°53.258 5 215 4.5 103040 74
2002-03-25 07:54:06 51°16.256 2°53.243 4.6 225 4.5 103040 74
2002-03-25 07:54:10 51°16.27 2°53.233 4.9 216 4.6 103040 75
2002-03-25 07:54:16 51°16.291 2°53.217 4.7 222 4.6 103040 75
2002-03-25 07:54:20 51°16.305 2°53.208 4.9 214 4.5 103040 75
2002-03-25 07:54:25 51°16.323 2°53.196 4.7 224 4.5 103040 75
2002-03-25 07:54:31 51°16.343 2°53.18 4.3 215 4.5 103040 75
2002-03-25 07:54:36 51°16.361 2°53.168 4.3 225 4.5 103040 75
2002-03-25 07:54:41 51°16.378 2°53.155 4.3 219 4.6 103040 75
2002-03-25 07:54:46 51°16.396 2°53.143 5.1 224 4.6 103040 75
2002-03-25 07:54:50 51°16.41 2°53.132 4.4 223 4.6 103040 74
2002-03-25 07:54:55 51°16.428 2°53.121 4.7 225 4.6 103040 74
2002-03-25 07:55:01 51°16.448 2°53.104 4.7 224 4.6 103040 74
2002-03-25 07:55:06 51°16.466 2°53.094 4.1 225 4.6 103040 74
2002-03-25 07:55:11 51°16.482 2°53.079 4.6 228 4.6 103040 75
2002-03-25 07:55:15 51°16.497 2°53.071 4.1 223 4.6 103040 75
2002-03-25 07:55:20 51°16.513 2°53.057 4 227 4.6 103050 75
2002-03-25 07:55:25 51°16.531 2°53.046 4.2 222 4.6 103050 75
2002-03-25 07:55:30 51°16.548 2°53.033 4.5 227 4.6 103050 74
2002-03-25 07:55:35 51°16.565 2°53.021 4.6 218 4.6 103050 74
2002-03-25 07:55:40 51°16.582 2°53.008 4.2 227 4.6 103040 74
2002-03-25 07:55:45 51°16.599 2°52.995 4.5 210 4.6 103040 74
2002-03-25 07:55:51 51°16.62 2°52.98 3.5 217 4.6 103050 74
2002-03-25 07:55:55 51°16.633 2°52.97 4.3 206 4.6 103050 74
2002-03-25 07:56:01 51°16.654 2°52.956 4.6 215 4.6 103050 73
2002-03-25 07:56:06 51°16.671 2°52.943 5.2 209 4.6 103050 73
2002-03-25 07:56:11 51°16.688 2°52.931 4.2 217 4.5 103050 73
2002-03-25 07:56:15 51°16.701 2°52.92 4.5 206 4.5 103050 73
2002-03-25 07:56:20 51°16.719 2°52.91 4.5 218 4.5 103050 73
2002-03-25 07:56:25 51°16.735 2°52.895 4 204 4.5 103050 73
2002-03-25 07:56:29 51°16.749 2°52.887 4.1 208 4.6 103050 74
2002-03-25 07:56:36 51°16.773 2°52.868 4 207 4.6 103050 74
2002-03-25 07:56:40 51°16.787 2°52.861 4.1 207 4.6 103050 74
2002-03-25 07:56:45 51°16.804 2°52.847 4.3 215 4.6 103050 74
2002-03-25 07:56:50 51°16.821 2°52.836 4.8 208 4.6 103050 74
2002-03-25 07:56:55 51°16.838 2°52.823 4.2 219 4.6 103050 74
2002-03-25 07:57:01 51°16.858 2°52.81 4.1 209 4.6 103050 74
2002-03-25 07:57:05 51°16.872 2°52.798 3.9 221 4.6 103050 74
2002-03-25 07:57:10 51°16.888 2°52.786 4.1 213 4.6 103050 74
2002-03-25 07:57:16 51°16.908 2°52.77 4.2 221 4.6 103050 74
2002-03-25 07:57:21 51°16.926 2°52.758 4.1 217 4.6 103050 74
2002-03-25 07:57:25 51°16.939 2°52.748 4 231 4.6 103050 74
2002-03-25 07:57:31 51°16.959 2°52.733 3.7 219 4.6 103050 74
2002-03-25 07:57:36 51°16.976 2°52.72 4 228 4.6 103050 74
2002-03-25 07:57:40 51°16.99 2°52.709 4 217 4.6 103050 74
2002-03-25 07:57:46 51°17.011 2°52.695 4.9 228 4.6 103050 74
2002-03-25 07:57:50 51°17.024 2°52.684 4.8 221 4.7 103050 74
2002-03-25 07:57:56 51°17.045 2°52.67 4.7 226 4.7 103050 74
2002-03-25 07:58:01 51°17.062 2°52.656 4.5 224 4.7 103050 74
2002-03-25 07:58:05 51°17.076 2°52.648 4.5 231 4.7 103050 74
2002-03-25 07:58:11 51°17.096 2°52.631 4.7 211 4.7 103050 74
2002-03-25 07:58:16 51°17.114 2°52.62 4 230 4.7 103050 74
2002-03-25 07:58:20 51°17.127 2°52.609 4.2 227 4.7 103050 74
2002-03-25 07:58:26 51°17.148 2°52.596 3.7 224 4.7 103050 74
2002-03-25 07:58:30 51°17.161 2°52.584 4 226 4.7 103050 74
2002-03-25 07:58:35 51°17.179 2°52.573 4.2 225 4.7 103050 74
2002-03-25 07:58:40 51°17.196 2°52.559 3.8 230 4.7 103050 73
2002-03-25 07:58:45 51°17.213 2°52.548 3.9 224 4.7 103050 73
2002-03-25 07:58:50 51°17.23 2°52.534 3.9 229 4.7 103050 73
2002-03-25 07:58:55 51°17.247 2°52.522 4.1 220 4.7 103050 73
2002-03-25 07:59:00 51°17.264 2°52.509 4.1 226 4.7 103050 72
2002-03-25 07:59:05 51°17.281 2°52.497 4.1 214 4.7 103050 72
2002-03-25 07:59:10 51°17.299 2°52.484 3.9 225 4.7 103050 72
2002-03-25 07:59:16 51°17.319 2°52.47 4.3 212 4.7 103050 72
2002-03-25 07:59:21 51°17.337 2°52.456 4.2 224 4.7 103050 72
2002-03-25 07:59:25 51°17.35 2°52.446 4.4 212 4.7 103050 72
2002-03-25 07:59:31 51°17.371 2°52.431 4 224 4.7 103050 73
2002-03-25 07:59:36 51°17.388 2°52.418 4.1 209 4.7 103050 73
2002-03-25 07:59:40 51°17.402 2°52.409 4.3 224 4.7 103050 72
2002-03-25 07:59:46 51°17.421 2°52.391 4.2 220 4.7 103050 72
2002-03-25 07:59:50 51°17.433 2°52.379 4 231 4.7 103050 72
2002-03-25 07:59:56 51°17.45 2°52.356 3.7 231 4.7 103050 72
2002-03-25 08:00:00 51°17.46 2°52.34 3.8 233 4.7 103050 72
2002-03-25 08:00:05 51°17.471 2°52.317 4 235 4.7 103050 72
2002-03-25 08:00:10 51°17.482 2°52.294 3.7 236 4.7 103050 72
2002-03-25 08:00:15 51°17.492 2°52.271 4.2 243 4.7 103050 72
2002-03-25 08:00:20 51°17.502 2°52.247 4.3 239 4.7 103050 72
2002-03-25 08:00:25 51°17.512 2°52.223 4 244 4.7 103050 72
2002-03-25 08:00:31 51°17.524 2°52.194 4.3 243 4.7 103050 72
2002-03-25 08:00:35 51°17.532 2°52.174 4.7 242 4.7 103050 72
2002-03-25 08:00:40 51°17.542 2°52.15 4.4 243 4.7 103050 72
2002-03-25 08:00:45 51°17.552 2°52.125 4.6 240 4.7 103050 72
2002-03-25 08:00:50 51°17.562 2°52.1 4.8 240 4.8 103050 72
2002-03-25 08:00:56 51°17.574 2°52.07 4.5 242 4.8 103050 72
2002-03-25 08:01:01 51°17.583 2°52.045 4.4 239 4.8 103050 72
2002-03-25 08:01:05 51°17.591 2°52.025 4.9 243 4.8 103050 72
2002-03-25 08:01:10 51°17.601 2°52 4.5 246 4.8 103050 72
2002-03-25 08:01:15 51°17.611 2°51.976 4.9 244 4.8 103050 72
2002-03-25 08:01:20 51°17.62 2°51.95 4.5 244 4.8 103050 72
2002-03-25 08:01:24 51°17.628 2°51.93 4.4 245 4.8 103050 72
2002-03-25 08:01:31 51°17.641 2°51.895 4.8 247 4.8 103050 72
2002-03-25 08:01:35 51°17.649 2°51.875 4.5 248 4.8 103050 72
2002-03-25 08:01:40 51°17.659 2°51.85 4.3 247 4.8 103050 72
2002-03-25 08:01:45 51°17.669 2°51.825 4.8 245 4.8 103050 72
2002-03-25 08:01:51 51°17.68 2°51.795 4.8 248 4.9 103050 72
2002-03-25 08:01:56 51°17.69 2°51.77 4.7 247 4.9 103050 72
2002-03-25 08:02:00 51°17.697 2°51.75 4.8 242 4.9 103050 72
2002-03-25 08:02:05 51°17.707 2°51.725 4.5 247 4.9 103050 72
2002-03-25 08:02:11 51°17.719 2°51.695 4.5 243 4.9 103050 72
2002-03-25 08:02:16 51°17.729 2°51.67 4.4 243 4.9 103050 72
2002-03-25 08:02:20 51°17.737 2°51.65 4.4 241 4.9 103050 73
2002-03-25 08:02:25 51°17.747 2°51.626 4.5 241 4.9 103050 73
2002-03-25 08:02:30 51°17.756 2°51.6 4.5 233 4.9 103050 73
2002-03-25 08:02:35 51°17.766 2°51.575 4.8 242 4.9 103050 73
2002-03-25 08:02:40 51°17.776 2°51.55 4.2 235 4.9 103060 72
2002-03-25 08:02:45 51°17.786 2°51.526 4.7 242 4.9 103060 72
2002-03-25 08:02:51 51°17.797 2°51.495 4.6 239 4.9 103050 72
2002-03-25 08:02:55 51°17.805 2°51.475 4.6 245 4.9 103050 72
2002-03-25 08:03:00 51°17.815 2°51.45 5 238 4.9 103050 72
2002-03-25 08:03:06 51°17.826 2°51.42 5 242 4.9 103050 72
2002-03-25 08:03:10 51°17.834 2°51.4 4.9 238 4.9 103050 72
2002-03-25 08:03:15 51°17.844 2°51.375 4.5 246 4.9 103050 72
2002-03-25 08:03:20 51°17.854 2°51.351 4.6 238 4.9 103050 73
2002-03-25 08:03:25 51°17.864 2°51.325 4 241 4.9 103050 73
2002-03-25 08:03:30 51°17.873 2°51.3 4 237 4.9 103050 73
2002-03-25 08:03:36 51°17.885 2°51.27 4.4 244 4.9 103050 73
2002-03-25 08:03:40 51°17.893 2°51.25 4.3 241 5 103050 73
2002-03-25 08:03:46 51°17.905 2°51.22 4.9 242 5 103050 73
2002-03-25 08:03:51 51°17.915 2°51.195 4.3 238 5 103050 73
2002-03-25 08:03:56 51°17.925 2°51.17 4.1 240 5 103050 73
2002-03-25 08:04:01 51°17.934 2°51.145 4.1 234 5 103050 73
2002-03-25 08:04:05 51°17.942 2°51.125 4.1 242 5 103050 73
2002-03-25 08:04:11 51°17.954 2°51.094 4.5 233 5 103050 73
2002-03-25 08:04:15 51°17.961 2°51.074 4.7 243 5 103050 73
2002-03-25 08:04:20 51°17.971 2°51.049 4.5 241 5 103050 73
2002-03-25 08:04:25 51°17.981 2°51.024 5 237 5 103050 73
2002-03-25 08:04:30 51°17.99 2°50.998 4.3 234 5 103050 74
2002-03-25 08:04:36 51°18.002 2°50.968 4.8 239 5 103050 74
2002-03-25 08:04:40 51°18.01 2°50.948 4.6 244 5 103050 74
2002-03-25 08:04:45 51°18.02 2°50.923 4.3 235 5 103050 74
2002-03-25 08:04:50 51°18.03 2°50.898 4.7 235 5.1 103050 74
2002-03-25 08:04:56 51°18.042 2°50.868 4.8 242 5.1 103050 74
2002-03-25 08:05:00 51°18.05 2°50.848 4.8 236 5.1 103050 74
2002-03-25 08:05:05 51°18.059 2°50.823 5 244 5.1 103050 74
2002-03-25 08:05:11 51°18.072 2°50.793 5 242 5.1 103050 74
2002-03-25 08:05:15 51°18.079 2°50.772 4.7 240 5.1 103050 74
2002-03-25 08:05:20 51°18.09 2°50.748 4.9 235 5.1 103050 74
2002-03-25 08:05:25 51°18.099 2°50.722 4.6 238 5.1 103050 74
2002-03-25 08:05:31 51°18.111 2°50.692 4.4 240 5.1 103050 74
2002-03-25 08:05:36 51°18.121 2°50.667 4.8 242 5.1 103050 74
2002-03-25 08:05:41 51°18.131 2°50.642 4.5 241 5.1 103050 74
2002-03-25 08:05:45 51°18.138 2°50.621 4.2 232 5.1 103050 74
2002-03-25 08:05:50 51°18.148 2°50.597 4.8 233 5.1 103050 74
2002-03-25 08:05:56 51°18.159 2°50.566 4.6 230 5.1 103050 74
2002-03-25 08:06:00 51°18.168 2°50.546 4.7 234 5.1 103050 74
2002-03-25 08:06:06 51°18.179 2°50.515 4.9 235 5.1 103050 74
2002-03-25 08:06:10 51°18.187 2°50.495 4.6 235 5.1 103050 74
2002-03-25 08:06:15 51°18.196 2°50.469 4.3 236 5.1 103050 74
2002-03-25 08:06:20 51°18.207 2°50.444 4.8 240 5.1 103050 74
2002-03-25 08:06:25 51°18.216 2°50.418 4.9 235 5.1 103050 74
2002-03-25 08:06:30 51°18.226 2°50.394 5 236 5.1 103050 74
2002-03-25 08:06:35 51°18.235 2°50.367 4.9 234 5.1 103050 74
2002-03-25 08:06:40 51°18.246 2°50.343 4.5 232 5.1 103050 74
2002-03-25 08:06:45 51°18.255 2°50.317 4.2 234 5.1 103050 74
2002-03-25 08:06:51 51°18.268 2°50.287 4.7 232 5.1 103050 73
2002-03-25 08:06:56 51°18.276 2°50.261 4.9 228 5.1 103050 73
2002-03-25 08:07:00 51°18.285 2°50.241 4.5 234 5.2 103050 73
2002-03-25 08:07:05 51°18.295 2°50.215 4.4 230 5.2 103050 73
2002-03-25 08:07:10 51°18.305 2°50.191 4.7 228 5.2 103050 73
2002-03-25 08:07:15 51°18.314 2°50.165 2.6 236 5.2 103050 73
2002-03-25 08:07:20 51°18.325 2°50.14 4.8 231 5.2 103050 73
2002-03-25 08:07:26 51°18.336 2°50.109 4.9 242 5.2 103050 73
2002-03-25 08:07:30 51°18.345 2°50.089 4.2 238 5.2 103050 73
2002-03-25 08:07:36 51°18.356 2°50.058 5 238 5.2 103050 73
2002-03-25 08:07:40 51°18.364 2°50.038 4.2 231 5.2 103050 74
2002-03-25 08:07:45 51°18.374 2°50.013 4.5 243 5.2 103050 74
2002-03-25 08:07:50 51°18.383 2°49.987 5.2 229 5.2 103050 74
2002-03-25 08:07:55 51°18.393 2°49.962 4.9 243 5.2 103050 74
2002-03-25 08:08:00 51°18.403 2°49.936 4.9 235 5.2 103050 73
2002-03-25 08:08:05 51°18.413 2°49.911 4.8 247 5.2 103050 73
2002-03-25 08:08:10 51°18.423 2°49.886 4.9 238 5.2 103050 73
2002-03-25 08:08:15 51°18.433 2°49.861 4.9 248 5.2 103050 73
2002-03-25 08:08:20 51°18.442 2°49.835 4.6 237 5.2 103040 73
2002-03-25 08:08:25 51°18.453 2°49.81 5 248 5.2 103040 73
2002-03-25 08:08:30 51°18.462 2°49.784 4.7 245 5.2 103050 73
2002-03-25 08:08:35 51°18.473 2°49.76 5 243 5.2 103050 73
2002-03-25 08:08:40 51°18.482 2°49.734 5 241 5.3 103050 73
2002-03-25 08:08:45 51°18.493 2°49.709 4.9 246 5.3 103050 73
2002-03-25 08:08:50 51°18.502 2°49.683 4.7 245 5.3 103050 73
2002-03-25 08:08:55 51°18.513 2°49.659 5.6 243 5.3 103050 73
2002-03-25 08:09:00 51°18.522 2°49.632 5 238 5.3 103050 73
2002-03-25 08:09:05 51°18.533 2°49.608 5.4 248 5.3 103050 73
2002-03-25 08:09:10 51°18.542 2°49.582 5.4 247 5.3 103050 73
2002-03-25 08:09:15 51°18.553 2°49.558 5.3 249 5.3 103050 73
2002-03-25 08:09:21 51°18.564 2°49.527 5.1 249 5.3 103050 73
2002-03-25 08:09:25 51°18.572 2°49.507 5.5 250 5.3 103050 73
2002-03-25 08:09:30 51°18.582 2°49.482 5.1 255 5.3 103050 74
2002-03-25 08:09:35 51°18.592 2°49.457 4.9 251 5.3 103050 74
2002-03-25 08:09:40 51°18.602 2°49.432 4.7 252 5.3 103050 72
2002-03-25 08:09:46 51°18.614 2°49.402 4.5 251 5.3 103050 72
2002-03-25 08:09:50 51°18.621 2°49.381 5.1 254 5.3 103050 71
2002-03-25 08:09:55 51°18.631 2°49.357 4.8 252 5.3 103050 71
2002-03-25 08:10:00 51°18.641 2°49.332 4.4 256 5.3 103050 70
2002-03-25 08:10:05 51°18.651 2°49.307 4.3 256 5.3 103050 70
2002-03-25 08:10:10 51°18.66 2°49.282 4.7 262 5.3 103050 70
2002-03-25 08:10:15 51°18.67 2°49.257 4.5 257 5.3 103050 70
2002-03-25 08:10:21 51°18.681 2°49.226 4.8 262 5.3 103050 69
2002-03-25 08:10:25 51°18.69 2°49.207 4.2 262 5.3 103050 69
2002-03-25 08:10:31 51°18.701 2°49.177 4.7 258 5.3 103050 69
2002-03-25 08:10:35 51°18.709 2°49.157 4.1 255 5.3 103050 69
2002-03-25 08:10:40 51°18.719 2°49.132 4.7 255 5.4 103050 68
2002-03-25 08:10:45 51°18.73 2°49.109 4.9 253 5.4 103050 68
2002-03-25 08:10:49 51°18.738 2°49.089 5.4 256 5.4 103050 68
2002-03-25 08:10:56 51°18.753 2°49.055 5 254 5.4 103050 68
2002-03-25 08:11:00 51°18.761 2°49.035 4.8 257 5.4 103050 68
2002-03-25 08:11:05 51°18.772 2°49.012 5.1 250 5.4 103050 68
2002-03-25 08:11:10 51°18.782 2°48.987 4.7 259 5.4 103050 68
2002-03-25 08:11:15 51°18.792 2°48.963 4.7 252 5.4 103050 68
2002-03-25 08:11:20 51°18.803 2°48.939 5 261 5.4 103050 68
2002-03-25 08:11:25 51°18.812 2°48.914 4.3 253 5.4 103050 68
2002-03-25 08:11:31 51°18.825 2°48.885 4.8 260 5.4 103050 68
2002-03-25 08:11:35 51°18.833 2°48.865 4.1 249 5.4 103050 68
2002-03-25 08:11:39 51°18.842 2°48.846 4.9 257 5.5 103050 68
2002-03-25 08:11:44 51°18.851 2°48.821 4.8 247 5.5 103050 68
2002-03-25 08:11:51 51°18.866 2°48.788 5.6 260 5.5 103050 67
2002-03-25 08:11:56 51°18.876 2°48.763 4.4 247 5.5 103050 67
2002-03-25 08:12:00 51°18.885 2°48.744 4.9 258 5.5 103050 67
2002-03-25 08:12:06 51°18.896 2°48.714 4.7 248 5.5 103050 67
2002-03-25 08:12:10 51°18.905 2°48.695 4.6 257 5.5 103050 66
2002-03-25 08:12:15 51°18.914 2°48.669 3.9 239 5.5 103050 66
2002-03-25 08:12:20 51°18.925 2°48.646 4.2 251 5.5 103040 66
2002-03-25 08:12:24 51°18.933 2°48.626 4.6 250 5.5 103040 66
2002-03-25 08:12:31 51°18.948 2°48.592 4.5 248 5.5 103050 65
2002-03-25 08:12:35 51°18.955 2°48.571 4.3 244 5.5 103050 65
2002-03-25 08:12:40 51°18.966 2°48.548 4.2 250 5.5 103050 65
2002-03-25 08:12:45 51°18.975 2°48.522 3.7 244 5.5 103050 65
2002-03-25 08:12:51 51°18.988 2°48.494 4.1 244 5.6 103050 65
2002-03-25 08:12:55 51°18.995 2°48.472 4.2 243 5.6 103050 65
2002-03-25 08:13:00 51°19.006 2°48.448 4.3 243 5.6 103040 65
2002-03-25 08:13:06 51°19.016 2°48.417 4.7 239 5.6 103040 65
2002-03-25 08:13:10 51°19.025 2°48.398 4.6 244 5.6 103050 64
2002-03-25 08:13:15 51°19.033 2°48.372 4.7 244 5.6 103050 64
2002-03-25 08:13:20 51°19.043 2°48.347 4.2 243 5.6 103050 65
2002-03-25 08:13:25 51°19.052 2°48.321 4.4 253 5.6 103050 65
2002-03-25 08:13:31 51°19.063 2°48.29 4.3 252 5.6 103040 65
2002-03-25 08:13:34 51°19.069 2°48.274 4.6 260 5.6 103040 65
2002-03-25 08:13:40 51°19.079 2°48.243 4.3 253 5.6 103050 65
2002-03-25 08:13:44 51°19.087 2°48.223 5.5 258 5.6 103050 65
2002-03-25 08:13:50 51°19.097 2°48.192 5.4 251 5.7 103040 66
2002-03-25 08:13:56 51°19.108 2°48.161 5.7 256 5.7 103040 66
2002-03-25 08:14:00 51°19.115 2°48.14 5.1 248 5.7 103040 66
2002-03-25 08:14:05 51°19.124 2°48.114 5.4 261 5.7 103040 66
2002-03-25 08:14:09 51°19.131 2°48.093 4.9 252 5.7 103050 66
2002-03-25 08:14:16 51°19.144 2°48.057 5.2 261 5.7 103050 66
2002-03-25 08:14:20 51°19.151 2°48.036 4.2 257 5.7 103040 65
2002-03-25 08:14:25 51°19.161 2°48.011 4.6 261 5.7 103040 65
2002-03-25 08:14:29 51°19.168 2°47.99 4.8 256 5.7 103040 64
2002-03-25 08:14:36 51°19.183 2°47.956 4.8 260 5.7 103040 64
2002-03-25 08:14:40 51°19.191 2°47.936 4.6 261 5.7 103040 64
2002-03-25 08:14:46 51°19.206 2°47.908 5.7 252 5.7 103040 64
2002-03-25 08:14:50 51°19.214 2°47.889 4.9 250 5.7 103050 65
2002-03-25 08:14:56 51°19.229 2°47.862 5 249 5.7 103050 65
2002-03-25 08:15:00 51°19.239 2°47.843 5.7 254 5.7 103050 65
2002-03-25 08:15:04 51°19.249 2°47.825 5.4 257 5.7 103050 65
2002-03-25 08:15:10 51°19.263 2°47.797 5.2 257 5.7 103050 66
2002-03-25 08:15:14 51°19.273 2°47.779 4.9 256 5.7 103050 66
2002-03-25 08:15:19 51°19.286 2°47.756 5.1 259 5.7 103050 66
2002-03-25 08:15:24 51°19.298 2°47.733 5.1 254 5.7 103050 66
2002-03-25 08:15:30 51°19.313 2°47.705 5.2 259 5.8 103050 66
2002-03-25 08:15:36 51°19.328 2°47.679 4.6 252 5.8 103050 66
2002-03-25 08:15:39 51°19.335 2°47.664 4.9 256 5.7 103050 65
2002-03-25 08:15:44 51°19.347 2°47.64 4.7 250 5.7 103050 65
2002-03-25 08:15:50 51°19.361 2°47.612 5 260 5.8 103050 65
2002-03-25 08:15:55 51°19.372 2°47.589 4.3 248 5.8 103050 65
2002-03-25 08:15:59 51°19.383 2°47.57 4.3 250 5.8 103050 65
2002-03-25 08:16:06 51°19.398 2°47.537 4.1 240 5.8 103050 65
2002-03-25 08:16:10 51°19.409 2°47.518 4.4 251 5.8 103050 64
2002-03-25 08:16:14 51°19.417 2°47.498 4.6 241 5.8 103050 64
2002-03-25 08:16:19 51°19.43 2°47.475 4.5 247 5.8 103050 64
2002-03-25 08:16:26 51°19.445 2°47.441 4.8 243 5.8 103050 64
2002-03-25 08:16:30 51°19.455 2°47.423 4.9 250 5.8 103040 64
2002-03-25 08:16:35 51°19.466 2°47.398 4.8 251 5.8 103040 64
2002-03-25 08:16:40 51°19.478 2°47.375 5.1 251 5.8 103050 64
2002-03-25 08:16:44 51°19.487 2°47.355 5.1 251 5.8 103050 64
2002-03-25 08:16:50 51°19.501 2°47.327 5.2 246 5.8 103040 64
2002-03-25 08:16:54 51°19.511 2°47.307 4.6 251 5.8 103040 64
2002-03-25 08:16:59 51°19.522 2°47.283 4.5 247 5.8 103050 65
2002-03-25 08:17:04 51°19.534 2°47.26 4.7 255 5.8 103050 65
2002-03-25 08:17:10 51°19.548 2°47.232 4.2 240 5.8 103040 64
2002-03-25 08:17:14 51°19.558 2°47.213 4.7 255 5.8 103040 64
2002-03-25 08:17:19 51°19.569 2°47.189 4.2 244 5.8 103040 64
2002-03-25 08:17:23 51°19.58 2°47.171 5.1 259 5.8 103040 64
2002-03-25 08:17:29 51°19.593 2°47.141 4.7 244 5.8 103040 64
2002-03-25 08:17:35 51°19.607 2°47.113 5.1 259 5.8 103040 64
2002-03-25 08:17:40 51°19.618 2°47.089 4.4 256 5.8 103040 64
2002-03-25 08:17:46 51°19.633 2°47.061 4.8 262 5.8 103040 64
2002-03-25 08:17:51 51°19.645 2°47.037 4.3 245 5.8 103050 64
2002-03-25 08:17:55 51°19.655 2°47.019 4.5 265 5.8 103050 64
2002-03-25 08:18:00 51°19.666 2°46.994 4.6 253 5.8 103040 64
2002-03-25 08:18:04 51°19.676 2°46.976 4.1 270 5.8 103040 64
2002-03-25 08:18:10 51°19.69 2°46.947 4 254 5.8 103050 64
2002-03-25 08:18:14 51°19.7 2°46.929 4.1 253 5.8 103050 64
2002-03-25 08:18:20 51°19.713 2°46.9 4.6 253 5.8 103040 64
2002-03-25 08:18:25 51°19.726 2°46.878 4.8 265 5.8 103040 64
2002-03-25 08:18:29 51°19.734 2°46.858 5.4 258 5.9 103050 65
2002-03-25 08:18:36 51°19.752 2°46.826 5 262 5.9 103050 65
2002-03-25 08:18:40 51°19.761 2°46.806 5 263 5.9 103050 64
2002-03-25 08:18:45 51°19.772 2°46.782 4.9 252 5.9 103050 64
2002-03-25 08:18:50 51°19.784 2°46.759 5.2 264 5.9 103050 65
2002-03-25 08:18:55 51°19.795 2°46.735 4.4 249 5.9 103050 65
2002-03-25 08:18:59 51°19.805 2°46.717 5 261 5.9 103050 64
2002-03-25 08:19:05 51°19.818 2°46.688 4.4 245 5.9 103050 64
2002-03-25 08:19:10 51°19.831 2°46.665 4.5 246 5.9 103040 65
2002-03-25 08:19:14 51°19.84 2°46.645 4.9 246 5.9 103040 65
2002-03-25 08:19:19 51°19.852 2°46.623 5.1 248 5.9 103050 64
2002-03-25 08:19:25 51°19.866 2°46.594 4.7 247 5.9 103050 64
2002-03-25 08:19:30 51°19.879 2°46.572 4.5 246 5.9 103040 64
2002-03-25 08:19:35 51°19.89 2°46.547 4.7 248 5.9 103040 64
2002-03-25 08:19:39 51°19.899 2°46.529 4.5 245 5.9 103040 64
2002-03-25 08:19:44 51°19.911 2°46.505 4.2 254 5.9 103040 64
2002-03-25 08:19:50 51°19.925 2°46.478 4.4 243 5.9 103040 63
2002-03-25 08:19:54 51°19.934 2°46.458 4.3 251 5.9 103040 63
2002-03-25 08:19:59 51°19.945 2°46.436 4.2 252 5.9 103040 63
2002-03-25 08:20:04 51°19.956 2°46.412 4.2 253 5.9 103040 63
2002-03-25 08:20:09 51°19.968 2°46.39 4.1 254 5.9 103050 63
2002-03-25 08:20:15 51°19.981 2°46.362 4.8 261 5.9 103050 63
2002-03-25 08:20:19 51°19.991 2°46.344 4.8 254 5.9 103040 63
2002-03-25 08:20:24 51°20.002 2°46.321 4.6 256 5.9 103040 63
2002-03-25 08:20:29 51°20.013 2°46.298 4.2 257 5.9 103050 64
2002-03-25 08:20:35 51°20.025 2°46.27 4.7 262 5.9 103050 64
2002-03-25 08:20:40 51°20.035 2°46.246 4.9 258 5.9 103040 64
2002-03-25 08:20:44 51°20.042 2°46.226 4.9 266 5.9 103040 64
2002-03-25 08:20:49 51°20.05 2°46.201 4.5 263 5.9 103040 63
2002-03-25 08:20:55 51°20.059 2°46.17 5.4 266 5.9 103040 63
2002-03-25 08:20:59 51°20.064 2°46.149 5.2 259 5.9 103040 63
2002-03-25 08:21:06 51°20.073 2°46.112 5.4 269 5.9 103040 63
2002-03-25 08:21:10 51°20.078 2°46.091 5 264 5.9 103040 62
2002-03-25 08:21:15 51°20.084 2°46.065 5.7 272 5.9 103040 62
2002-03-25 08:21:20 51°20.089 2°46.037 6.2 262 5.9 103040 62
2002-03-25 08:21:26 51°20.094 2°46.005 6.6 268 5.9 103040 62
2002-03-25 08:21:30 51°20.097 2°45.982 6.4 268 5.9 103030 62
2002-03-25 08:21:34 51°20.101 2°45.961 7 272 5.9 103030 62
2002-03-25 08:21:39 51°20.104 2°45.933 6.4 268 5.9 103040 62
2002-03-25 08:21:44 51°20.107 2°45.905 6.7 265 5.9 103040 62
2002-03-25 08:21:48 51°20.11 2°45.883 6.5 269 5.9 103040 62
2002-03-25 08:21:55 51°20.115 2°45.844 5.9 272 5.9 103040 62
2002-03-25 08:21:59 51°20.117 2°45.822 6.3 267 5.9 103040 62
2002-03-25 08:22:04 51°20.121 2°45.794 6 270 5.9 103040 62
2002-03-25 08:22:09 51°20.124 2°45.766 5.7 268 5.9 103040 62
2002-03-25 08:22:15 51°20.129 2°45.733 6.6 269 5.9 103040 62
2002-03-25 08:22:19 51°20.131 2°45.71 6 265 5.9 103040 63
2002-03-25 08:22:25 51°20.136 2°45.677 6.9 263 5.9 103040 63
2002-03-25 08:22:30 51°20.14 2°45.65 6.4 263 5.9 103040 63
2002-03-25 08:22:34 51°20.143 2°45.627 6.8 265 5.9 103040 63
2002-03-25 08:22:39 51°20.148 2°45.6 6.9 265 5.9 103040 63
2002-03-25 08:22:44 51°20.152 2°45.572 6.4 263 5.9 103040 63
2002-03-25 08:22:50 51°20.158 2°45.539 6.1 266 6 103040 64
2002-03-25 08:22:55 51°20.162 2°45.511 6 264 6 103040 64
2002-03-25 08:22:59 51°20.166 2°45.488 6.2 266 6 103030 65
2002-03-25 08:23:04 51°20.17 2°45.46 5.8 260 6 103030 65
2002-03-25 08:23:09 51°20.175 2°45.432 5.8 267 6 103030 64
2002-03-25 08:23:15 51°20.18 2°45.399 6.9 268 6 103030 64
2002-03-25 08:23:19 51°20.184 2°45.377 7.1 270 6 103040 64
2002-03-25 08:23:26 51°20.19 2°45.337 6.9 267 6 103040 64
2002-03-25 08:23:30 51°20.194 2°45.315 6.6 272 6 103040 64
2002-03-25 08:23:35 51°20.199 2°45.287 6 267 6 103040 64
2002-03-25 08:23:41 51°20.204 2°45.253 6.7 266 6 103040 65
2002-03-25 08:23:44 51°20.206 2°45.236 7 269 6 103040 65
2002-03-25 08:23:50 51°20.212 2°45.203 7.3 268 6 103040 64
2002-03-25 08:23:55 51°20.216 2°45.174 6.2 260 6 103040 64
2002-03-25 08:23:59 51°20.22 2°45.152 6.7 266 6 103040 64
2002-03-25 08:24:04 51°20.224 2°45.124 6.4 265 6 103040 64
2002-03-25 08:24:10 51°20.23 2°45.091 6.8 267 6 103040 64
2002-03-25 08:24:15 51°20.234 2°45.063 6.5 268 6 103040 64
2002-03-25 08:24:20 51°20.238 2°45.035 6.2 269 6 103040 64
2002-03-25 08:24:24 51°20.241 2°45.012 5.8 264 6 103040 64
2002-03-25 08:24:31 51°20.248 2°44.973 6.1 266 6 103030 64
2002-03-25 08:24:35 51°20.251 2°44.95 5.8 261 6 103030 64
2002-03-25 08:24:39 51°20.255 2°44.928 5.7 263 5.9 103030 63
2002-03-25 08:24:44 51°20.259 2°44.899 6.1 259 5.9 103030 63
2002-03-25 08:24:50 51°20.265 2°44.866 6.8 265 5.9 103040 63
2002-03-25 08:24:56 51°20.27 2°44.832 6.6 256 5.9 103040 63
2002-03-25 08:24:59 51°20.273 2°44.815 6.4 261 5.9 103040 63
2002-03-25 08:25:04 51°20.277 2°44.787 6 257 5.9 103040 63
2002-03-25 08:25:10 51°20.283 2°44.753 6.2 263 5.9 103040 64
2002-03-25 08:25:16 51°20.288 2°44.719 6.7 258 5.9 103040 64
2002-03-25 08:25:20 51°20.292 2°44.696 6.6 261 5.9 103040 64
2002-03-25 08:25:24 51°20.295 2°44.674 6.2 264 5.9 103040 64
2002-03-25 08:25:30 51°20.301 2°44.64 5.8 262 5.9 103040 64
2002-03-25 08:25:35 51°20.305 2°44.612 6.2 257 5.9 103040 64
2002-03-25 08:25:39 51°20.309 2°44.589 6.3 255 5.9 103040 64
2002-03-25 08:25:44 51°20.314 2°44.561 6.4 258 5.9 103040 64
2002-03-25 08:25:50 51°20.319 2°44.527 5.7 255 5.9 103040 65
2002-03-25 08:25:55 51°20.324 2°44.498 6.3 258 5.9 103040 65
2002-03-25 08:26:00 51°20.328 2°44.47 7 257 5.9 103040 66
2002-03-25 08:26:04 51°20.332 2°44.448 7.8 260 5.9 103040 66
2002-03-25 08:26:10 51°20.338 2°44.414 7.6 257 6 103040 66
2002-03-25 08:26:16 51°20.343 2°44.379 7.1 259 6 103040 66
2002-03-25 08:26:20 51°20.347 2°44.357 8 265 6 103040 66
2002-03-25 08:26:24 51°20.35 2°44.334 6.8 260 6 103040 66
2002-03-25 08:26:30 51°20.357 2°44.301 7.6 263 6 103040 67
2002-03-25 08:26:35 51°20.361 2°44.272 7.1 260 6 103040 67
2002-03-25 08:26:40 51°20.366 2°44.244 7.2 265 6 103030 65
2002-03-25 08:26:44 51°20.369 2°44.221 8 259 6 103030 65
2002-03-25 08:26:50 51°20.375 2°44.188 7.9 259 6 103040 64
2002-03-25 08:26:55 51°20.379 2°44.159 7.5 261 6 103040 64
2002-03-25 08:26:59 51°20.383 2°44.136 7.5 260 5.9 103040 65
2002-03-25 08:27:04 51°20.388 2°44.108 7.6 257 5.9 103040 65
2002-03-25 08:27:11 51°20.394 2°44.069 7.2 260 6 103040 66
2002-03-25 08:27:15 51°20.398 2°44.046 6.8 259 6 103040 66
2002-03-25 08:27:19 51°20.401 2°44.023 6.9 262 6 103040 66
2002-03-25 08:27:24 51°20.406 2°43.995 6.8 260 6 103040 66
2002-03-25 08:27:30 51°20.411 2°43.961 7.1 255 6 103040 66
2002-03-25 08:27:35 51°20.415 2°43.932 6.7 252 6 103040 66
2002-03-25 08:27:40 51°20.421 2°43.904 6.4 252 6 103040 66
2002-03-25 08:27:44 51°20.424 2°43.882 6.7 256 6 103040 66
2002-03-25 08:27:50 51°20.43 2°43.848 7.7 259 6 103040 65
2002-03-25 08:27:56 51°20.435 2°43.814 7.3 258 6 103040 65
2002-03-25 08:27:59 51°20.438 2°43.797 7.5 262 6 103040 66
2002-03-25 08:28:04 51°20.442 2°43.768 6.3 256 6 103040 66
2002-03-25 08:28:11 51°20.45 2°43.729 6.2 257 6 103040 66
2002-03-25 08:28:15 51°20.453 2°43.707 6.6 260 6 103040 66
2002-03-25 08:28:21 51°20.459 2°43.673 6.5 256 6 103040 66
2002-03-25 08:28:24 51°20.462 2°43.656 7.6 257 6 103040 66
2002-03-25 08:28:31 51°20.469 2°43.617 7.1 258 6 103030 66
2002-03-25 08:28:35 51°20.472 2°43.594 7.3 255 6 103030 66
2002-03-25 08:28:39 51°20.476 2°43.572 7.4 258 6 103030 66
2002-03-25 08:28:44 51°20.48 2°43.544 6.9 257 6 103030 66
2002-03-25 08:28:50 51°20.485 2°43.51 7.3 259 6 103040 66
2002-03-25 08:28:55 51°20.49 2°43.482 7.1 258 6 103040 66
2002-03-25 08:28:59 51°20.493 2°43.459 7.2 261 5.9 103030 66
2002-03-25 08:29:04 51°20.496 2°43.431 6.5 259 5.9 103030 66
2002-03-25 08:29:11 51°20.502 2°43.391 6.7 258 5.9 103030 65
2002-03-25 08:29:15 51°20.505 2°43.368 6.6 256 5.9 103030 65
2002-03-25 08:29:19 51°20.508 2°43.346 6.8 257 5.9 103040 65
2002-03-25 08:29:24 51°20.512 2°43.317 7.4 256 5.9 103040 65
2002-03-25 08:29:30 51°20.517 2°43.283 7.2 259 5.9 103030 65
2002-03-25 08:29:35 51°20.52 2°43.255 7.4 260 5.9 103030 65
2002-03-25 08:29:40 51°20.524 2°43.226 7.9 259 5.9 103030 65
2002-03-25 08:29:45 51°20.528 2°43.198 7.2 257 5.9 103030 65
2002-03-25 08:29:51 51°20.532 2°43.164 7.4 258 5.9 103040 66
2002-03-25 08:29:55 51°20.535 2°43.141 7.1 259 5.9 103040 66
2002-03-25 08:30:00 51°20.538 2°43.112 6.9 259 6 103030 66
2002-03-25 08:30:04 51°20.542 2°43.09 6.8 262 6 103030 66
2002-03-25 08:30:10 51°20.546 2°43.056 6.7 261 5.9 103040 66
2002-03-25 08:30:15 51°20.55 2°43.027 6.7 262 5.9 103040 66
2002-03-25 08:30:19 51°20.552 2°43.005 6.7 264 5.9 103040 66
2002-03-25 08:30:24 51°20.556 2°42.976 6.8 259 5.9 103040 66
2002-03-25 08:30:30 51°20.56 2°42.942 7.7 263 5.9 103040 66
2002-03-25 08:30:35 51°20.564 2°42.914 6.6 264 5.9 103040 66
2002-03-25 08:30:40 51°20.568 2°42.886 6.7 260 5.9 103030 66
2002-03-25 08:30:44 51°20.57 2°42.863 7.1 261 5.9 103030 66
2002-03-25 08:30:50 51°20.574 2°42.83 6.2 260 5.9 103040 67
2002-03-25 08:30:55 51°20.577 2°42.801 5.8 253 5.9 103040 67
2002-03-25 08:30:59 51°20.58 2°42.779 6.2 260 5.9 103040 67
2002-03-25 08:31:04 51°20.583 2°42.751 6.3 259 5.9 103040 67
2002-03-25 08:31:10 51°20.586 2°42.717 6.3 266 5.9 103040 67
2002-03-25 08:31:15 51°20.589 2°42.688 7.4 264 5.9 103040 67
2002-03-25 08:31:19 51°20.591 2°42.666 7.2 267 5.9 103030 67
2002-03-25 08:31:24 51°20.594 2°42.638 6.8 266 5.9 103030 67
2002-03-25 08:31:30 51°20.597 2°42.603 7.1 261 5.9 103040 67
2002-03-25 08:31:35 51°20.6 2°42.575 6.6 259 5.9 103040 67
2002-03-25 08:31:40 51°20.603 2°42.547 6.8 256 6 103040 67
2002-03-25 08:31:44 51°20.605 2°42.525 7.1 255 6 103040 67
2002-03-25 08:31:50 51°20.609 2°42.491 7 258 6 103040 67
2002-03-25 08:31:55 51°20.612 2°42.462 7.1 257 6 103040 67
2002-03-25 08:31:59 51°20.614 2°42.44 7 258 6 103040 67
2002-03-25 08:32:04 51°20.617 2°42.412 7.5 260 6 103040 67
2002-03-25 08:32:10 51°20.62 2°42.378 7.5 257 6 103030 68
2002-03-25 08:32:15 51°20.623 2°42.35 6.7 261 6 103030 68
2002-03-25 08:32:19 51°20.625 2°42.328 6.8 261 6 103030 67
2002-03-25 08:32:24 51°20.628 2°42.3 6.2 260 6 103030 67
2002-03-25 08:32:28 51°20.63 2°42.278 6.2 263 6 103030 67
2002-03-25 08:32:35 51°20.634 2°42.239 6.2 261 6 103030 67
2002-03-25 08:32:39 51°20.637 2°42.216 6.6 264 6 103030 67
2002-03-25 08:32:44 51°20.64 2°42.188 6.5 262 6 103030 67
2002-03-25 08:32:49 51°20.642 2°42.16 6.4 265 6 103030 67
2002-03-25 08:32:55 51°20.646 2°42.127 6.4 260 6 103030 67
2002-03-25 08:32:59 51°20.649 2°42.105 6.3 264 5.9 103030 67
2002-03-25 08:33:04 51°20.652 2°42.077 6.7 262 5.9 103030 67
2002-03-25 08:33:10 51°20.655 2°42.044 6.3 262 6 103040 68
2002-03-25 08:33:15 51°20.658 2°42.016 6.5 260 6 103040 68
2002-03-25 08:33:19 51°20.66 2°41.994 6.3 257 6 103030 68
2002-03-25 08:33:24 51°20.663 2°41.966 7.1 259 6 103030 68
2002-03-25 08:33:29 51°20.666 2°41.938 7.5 260 6 103040 69
2002-03-25 08:33:35 51°20.669 2°41.905 7.8 256 6 103040 69
2002-03-25 08:33:39 51°20.672 2°41.883 7.5 262 6 103030 68
2002-03-25 08:33:44 51°20.674 2°41.855 7.5 260 6 103030 68
2002-03-25 08:33:49 51°20.677 2°41.827 7.5 260 6 103030 68
2002-03-25 08:33:54 51°20.68 2°41.799 7.1 258 6 103030 68
2002-03-25 08:33:59 51°20.683 2°41.771 6.8 261 6 103030 68
2002-03-25 08:34:03 51°20.685 2°41.749 7.7 264 6 103030 68
2002-03-25 08:34:09 51°20.689 2°41.715 7.2 262 6 103030 66
2002-03-25 08:34:14 51°20.692 2°41.687 6.7 265 6 103030 66
2002-03-25 08:34:20 51°20.695 2°41.654 6.7 260 6 103030 66
2002-03-25 08:34:24 51°20.698 2°41.631 7.7 260 6 103030 66
2002-03-25 08:34:30 51°20.701 2°41.598 7.4 261 6 103030 66
2002-03-25 08:34:34 51°20.704 2°41.575 7 263 6 103030 66
2002-03-25 08:34:40 51°20.708 2°41.541 7.5 258 6 103030 66
2002-03-25 08:34:44 51°20.71 2°41.519 7.5 259 6 103030 66
2002-03-25 08:34:49 51°20.714 2°41.491 7.4 260 6 103030 66
2002-03-25 08:34:54 51°20.716 2°41.463 7.3 259 6 103030 66
2002-03-25 08:34:59 51°20.72 2°41.435 7.5 264 6 103030 66
2002-03-25 08:35:04 51°20.723 2°41.407 7.4 264 6 103030 66
2002-03-25 08:35:10 51°20.726 2°41.373 7 265 6 103030 66
2002-03-25 08:35:15 51°20.729 2°41.345 6.9 266 6 103030 66
2002-03-25 08:35:19 51°20.732 2°41.323 6.7 266 6 103030 65
2002-03-25 08:35:24 51°20.735 2°41.295 7.7 260 6 103030 65
2002-03-25 08:35:30 51°20.739 2°41.261 7.4 257 6 103030 65
2002-03-25 08:35:34 51°20.741 2°41.238 7.7 260 6 103030 65
2002-03-25 08:35:40 51°20.745 2°41.204 7.2 255 6 103030 65
2002-03-25 08:35:44 51°20.748 2°41.182 7.2 257 6 103030 65
2002-03-25 08:35:49 51°20.751 2°41.153 6.7 253 6 103030 66
2002-03-25 08:35:54 51°20.754 2°41.125 7.1 255 6 103030 66
2002-03-25 08:35:59 51°20.757 2°41.097 7 252 6 103030 66
2002-03-25 08:36:04 51°20.76 2°41.068 7.2 257 6 103030 66
2002-03-25 08:36:09 51°20.764 2°41.04 7.6 259 6 103030 66
2002-03-25 08:36:14 51°20.766 2°41.012 6.8 256 6 103030 66
2002-03-25 08:36:19 51°20.769 2°40.983 6.6 259 6 103030 66
2002-03-25 08:36:24 51°20.771 2°40.955 6.8 259 6 103030 66
2002-03-25 08:36:29 51°20.773 2°40.927 6.4 260 6 103030 67
2002-03-25 08:36:34 51°20.775 2°40.898 7.3 262 6 103030 67
2002-03-25 08:36:39 51°20.776 2°40.87 7.1 260 6 103030 67
2002-03-25 08:36:43 51°20.777 2°40.847 7.1 255 6 103030 67
2002-03-25 08:36:49 51°20.779 2°40.812 6.9 257 6 103030 66
2002-03-25 08:36:55 51°20.781 2°40.778 8.1 259 6 103030 66
2002-03-25 08:37:00 51°20.783 2°40.75 8.2 261 6 103030 67
2002-03-25 08:37:04 51°20.785 2°40.727 7.5 257 6 103030 67
2002-03-25 08:37:09 51°20.787 2°40.698 7.7 258 6 103030 67
2002-03-25 08:37:14 51°20.789 2°40.67 7.9 261 6 103030 67
2002-03-25 08:37:19 51°20.791 2°40.641 8 262 6 103030 67
2002-03-25 08:37:24 51°20.793 2°40.612 7.9 260 6 103030 67
2002-03-25 08:37:30 51°20.796 2°40.578 7.8 264 6 103030 67
2002-03-25 08:37:35 51°20.797 2°40.55 8 264 6 103030 67
2002-03-25 08:37:39 51°20.799 2°40.527 7.8 264 6 103030 67
2002-03-25 08:37:44 51°20.8 2°40.498 7.4 261 6 103030 67
2002-03-25 08:37:50 51°20.803 2°40.464 7.2 266 6 103040 66
2002-03-25 08:37:55 51°20.805 2°40.435 6.9 262 6 103040 66
2002-03-25 08:37:59 51°20.806 2°40.413 7.5 267 6 103030 65
2002-03-25 08:38:05 51°20.809 2°40.378 8.6 262 6 103030 65
2002-03-25 08:38:08 51°20.81 2°40.361 7.7 260 6 103030 65
2002-03-25 08:38:14 51°20.813 2°40.326 7.8 263 6 103030 65
2002-03-25 08:38:19 51°20.815 2°40.298 7.5 260 6 103030 65
2002-03-25 08:38:24 51°20.817 2°40.269 7.3 256 6 103030 65
2002-03-25 08:38:30 51°20.82 2°40.235 7.5 256 6 103040 66
2002-03-25 08:38:34 51°20.821 2°40.212 6.9 254 6 103040 66
2002-03-25 08:38:39 51°20.823 2°40.183 6.9 252 6 103030 66
2002-03-25 08:38:45 51°20.824 2°40.149 6.8 255 6 103030 66
2002-03-25 08:38:50 51°20.827 2°40.121 6.6 252 6 103030 66
2002-03-25 08:38:54 51°20.828 2°40.098 7.2 255 6 103030 66
2002-03-25 08:39:00 51°20.83 2°40.063 7.5 256 6 103030 66
2002-03-25 08:39:05 51°20.832 2°40.035 7 260 6 103030 66
2002-03-25 08:39:10 51°20.835 2°40.006 7.1 263 6 103040 66
2002-03-25 08:39:15 51°20.836 2°39.977 8.1 254 6 103040 66
2002-03-25 08:39:19 51°20.838 2°39.954 8 253 6 103040 66
2002-03-25 08:39:24 51°20.84 2°39.926 7.9 257 6 103040 66
2002-03-25 08:39:29 51°20.842 2°39.897 7.4 252 6 103040 66
2002-03-25 08:39:35 51°20.845 2°39.862 7.1 261 6 103040 66
2002-03-25 08:39:40 51°20.847 2°39.833 7.4 253 6 103040 67
2002-03-25 08:39:45 51°20.849 2°39.804 6.9 257 6 103040 67
2002-03-25 08:39:49 51°20.85 2°39.782 7 251 6 103030 68
2002-03-25 08:39:54 51°20.853 2°39.753 7.4 255 6 103030 68
2002-03-25 08:39:59 51°20.854 2°39.724 6.8 256 6 103040 68
2002-03-25 08:40:04 51°20.856 2°39.695 7 260 6 103040 68
2002-03-25 08:40:09 51°20.859 2°39.667 7.5 262 6.1 103030 68
2002-03-25 08:40:15 51°20.861 2°39.632 8.2 261 6.1 103030 68
2002-03-25 08:40:19 51°20.862 2°39.609 8 259 6.1 103040 69
2002-03-25 08:40:24 51°20.864 2°39.58 8.3 261 6.1 103040 69
2002-03-25 08:40:29 51°20.866 2°39.552 8.4 259 6.1 103030 69
2002-03-25 08:40:34 51°20.868 2°39.523 8.7 258 6.1 103030 69
2002-03-25 08:40:39 51°20.87 2°39.494 8.6 259 6.1 103040 69
2002-03-25 08:40:44 51°20.872 2°39.465 8.5 261 6.1 103040 69
2002-03-25 08:40:49 51°20.874 2°39.437 9 265 6.1 103030 68
2002-03-25 08:40:54 51°20.876 2°39.408 8 262 6.1 103030 68
2002-03-25 08:40:59 51°20.878 2°39.38 8.1 265 6.1 103030 68
2002-03-25 08:41:05 51°20.881 2°39.345 8.2 264 6.1 103030 68
2002-03-25 08:41:09 51°20.882 2°39.323 7.9 264 6.1 103040 67
2002-03-25 08:41:15 51°20.884 2°39.288 8.5 262 6.1 103040 67
2002-03-25 08:41:20 51°20.886 2°39.26 8.7 262 6 103030 66
2002-03-25 08:41:25 51°20.888 2°39.231 7.7 263 6 103030 66
2002-03-25 08:41:30 51°20.89 2°39.203 7.5 264 6 103030 66
2002-03-25 08:41:35 51°20.892 2°39.174 7.5 262 6 103030 66
2002-03-25 08:41:40 51°20.894 2°39.146 7.9 261 6 103040 66
2002-03-25 08:41:45 51°20.896 2°39.118 7.4 261 6 103040 66
2002-03-25 08:41:49 51°20.898 2°39.095 7.1 262 6 103040 65
2002-03-25 08:41:54 51°20.9 2°39.067 6.9 260 6 103040 65
2002-03-25 08:41:59 51°20.901 2°39.038 6.8 260 6 103040 65
2002-03-25 08:42:04 51°20.904 2°39.01 7.5 260 6 103040 65
2002-03-25 08:42:10 51°20.906 2°38.976 7.5 260 6 103040 66
2002-03-25 08:42:15 51°20.907 2°38.948 7.3 264 6 103040 66
2002-03-25 08:42:19 51°20.909 2°38.925 7.1 262 6 103040 66
2002-03-25 08:42:25 51°20.912 2°38.891 7 263 6 103040 66
2002-03-25 08:42:29 51°20.913 2°38.868 6.6 262 6 103040 66
2002-03-25 08:42:34 51°20.915 2°38.84 8.1 262 6 103040 66
2002-03-25 08:42:39 51°20.917 2°38.811 8 263 6 103040 66
2002-03-25 08:42:44 51°20.919 2°38.783 8.4 260 6 103040 66
2002-03-25 08:42:50 51°20.921 2°38.749 7.9 260 6 103040 67
2002-03-25 08:42:55 51°20.923 2°38.721 8 255 6 103040 67
2002-03-25 08:42:59 51°20.925 2°38.698 8 258 6.1 103030 68
2002-03-25 08:43:04 51°20.927 2°38.67 7.3 257 6.1 103030 68
2002-03-25 08:43:10 51°20.929 2°38.635 7.5 256 6.1 103030 68
2002-03-25 08:43:15 51°20.931 2°38.607 6.9 257 6.1 103030 68
2002-03-25 08:43:20 51°20.933 2°38.579 7.2 262 6.1 103030 67
2002-03-25 08:43:25 51°20.935 2°38.551 7.8 264 6.1 103030 67
2002-03-25 08:43:30 51°20.937 2°38.522 8 263 6 103040 67
2002-03-25 08:43:35 51°20.939 2°38.494 7.4 263 6 103040 67
2002-03-25 08:43:39 51°20.941 2°38.472 7.2 263 6 103040 67
2002-03-25 08:43:44 51°20.942 2°38.443 7.7 262 6 103040 67
2002-03-25 08:43:50 51°20.945 2°38.409 7.7 265 6 103040 66
2002-03-25 08:43:55 51°20.947 2°38.381 7.5 256 6 103040 66
2002-03-25 08:44:00 51°20.949 2°38.353 8.3 259 6 103040 66
2002-03-25 08:44:04 51°20.95 2°38.331 7.9 258 6 103040 66
2002-03-25 08:44:10 51°20.953 2°38.297 7.5 253 6 103040 66
2002-03-25 08:44:15 51°20.954 2°38.269 7.6 256 6 103040 66
2002-03-25 08:44:19 51°20.956 2°38.247 8.3 256 6 103040 66
2002-03-25 08:44:24 51°20.958 2°38.219 7.9 258 6 103040 66
2002-03-25 08:44:30 51°20.96 2°38.185 7.8 257 6 103040 67
2002-03-25 08:44:35 51°20.962 2°38.157 7.5 259 6 103040 67
2002-03-25 08:44:39 51°20.963 2°38.134 7.6 257 6 103040 67
2002-03-25 08:44:44 51°20.965 2°38.106 7.3 255 6 103040 67
2002-03-25 08:44:50 51°20.968 2°38.073 7.2 260 6 103040 67
2002-03-25 08:44:55 51°20.969 2°38.045 7.6 256 6 103040 67
2002-03-25 08:45:00 51°20.972 2°38.017 7.3 260 6 103040 66
2002-03-25 08:45:04 51°20.972 2°37.994 6.8 255 6 103040 66
2002-03-25 08:45:10 51°20.976 2°37.961 7.4 257 6 103040 66
2002-03-25 08:45:15 51°20.977 2°37.933 7.6 254 6 103040 66
2002-03-25 08:45:19 51°20.979 2°37.91 7.8 254 6 103040 67
2002-03-25 08:45:24 51°20.981 2°37.882 7.7 253 6 103040 67
2002-03-25 08:45:30 51°20.984 2°37.848 7.8 256 6 103040 67
2002-03-25 08:45:35 51°20.986 2°37.821 7.2 261 6 103040 67
2002-03-25 08:45:40 51°20.989 2°37.793 7.4 261 6 103040 67
2002-03-25 08:45:46 51°20.996 2°37.761 5.8 261 6 103040 67
2002-03-25 08:45:50 51°21.002 2°37.74 6 264 6 103040 67
2002-03-25 08:45:55 51°21.011 2°37.716 5 256 6 103040 67
2002-03-25 08:45:59 51°21.019 2°37.698 5 254 6 103040 67
2002-03-25 08:46:04 51°21.031 2°37.677 5 248 6 103040 67
2002-03-25 08:46:10 51°21.047 2°37.654 4.6 244 6 103040 68
2002-03-25 08:46:15 51°21.062 2°37.638 4.3 244 6 103040 68
2002-03-25 08:46:20 51°21.078 2°37.625 4.1 245 6 103050 68
2002-03-25 08:46:24 51°21.092 2°37.617 3.8 235 6 103050 68
2002-03-25 08:46:30 51°21.113 2°37.607 3.6 230 6 103050 68
2002-03-25 08:46:35 51°21.132 2°37.602 4 223 6 103050 68
2002-03-25 08:46:40 51°21.15 2°37.6 4 224 6 103050 68
2002-03-25 08:46:44 51°21.165 2°37.6 4.4 228 6 103050 68
2002-03-25 08:46:50 51°21.188 2°37.599 5 229 6.1 103050 68
2002-03-25 08:46:55 51°21.207 2°37.597 4.1 224 6.1 103050 68
2002-03-25 08:46:59 51°21.223 2°37.597 4.6 223 6.1 103050 68
2002-03-25 08:47:04 51°21.242 2°37.596 4.3 229 6.1 103050 68
2002-03-25 08:47:10 51°21.266 2°37.596 4 225 6.1 103050 69
2002-03-25 08:47:15 51°21.285 2°37.595 4.7 225 6.1 103050 69
2002-03-25 08:47:20 51°21.305 2°37.596 4.3 225 6.1 103050 69
2002-03-25 08:47:24 51°21.32 2°37.596 4.4 225 6.1 103050 69
2002-03-25 08:47:30 51°21.344 2°37.596 4.9 227 6.1 103050 70
2002-03-25 08:47:35 51°21.363 2°37.595 4.7 230 6.1 103050 70
2002-03-25 08:47:39 51°21.379 2°37.596 4.3 225 6.1 103050 69
2002-03-25 08:47:44 51°21.399 2°37.595 4.9 235 6.1 103050 69
2002-03-25 08:47:50 51°21.422 2°37.594 4.3 228 6.1 103050 68
2002-03-25 08:47:55 51°21.442 2°37.593 3.8 224 6.1 103050 68
2002-03-25 08:48:00 51°21.462 2°37.593 4.1 228 6 103050 67
2002-03-25 08:48:05 51°21.481 2°37.592 4.1 226 6 103050 67
2002-03-25 08:48:10 51°21.501 2°37.59 3.6 228 6 103050 67
2002-03-25 08:48:15 51°21.52 2°37.589 4 230 6 103050 67
2002-03-25 08:48:19 51°21.536 2°37.587 3.8 228 6 103050 67
2002-03-25 08:48:24 51°21.555 2°37.584 3.8 234 6 103050 67
2002-03-25 08:48:30 51°21.578 2°37.58 3.4 230 6 103050 67
2002-03-25 08:48:35 51°21.598 2°37.576 3.8 233 6 103050 67
2002-03-25 08:48:39 51°21.613 2°37.573 3.8 233 6 103050 67
2002-03-25 08:48:44 51°21.632 2°37.569 3.9 230 6 103050 67
2002-03-25 08:48:50 51°21.656 2°37.564 4 232 6 103050 68
2002-03-25 08:48:55 51°21.675 2°37.561 3.7 224 6 103050 68
2002-03-25 08:49:00 51°21.694 2°37.557 3.9 231 6 103050 68
2002-03-25 08:49:04 51°21.71 2°37.554 3.7 230 6 103050 68
2002-03-25 08:49:10 51°21.733 2°37.55 3.9 227 6 103050 68
2002-03-25 08:49:15 51°21.752 2°37.546 4.4 241 6 103050 68
2002-03-25 08:49:19 51°21.767 2°37.542 4 233 6.1 103050 68
2002-03-25 08:49:24 51°21.787 2°37.538 4.2 235 6.1 103050 68
2002-03-25 08:49:30 51°21.81 2°37.532 4.5 234 6.1 103050 68
2002-03-25 08:49:35 51°21.829 2°37.529 4.6 240 6.1 103050 68
2002-03-25 08:49:40 51°21.848 2°37.524 4.8 242 6 103050 68
2002-03-25 08:49:45 51°21.868 2°37.52 4.4 237 6 103050 68
2002-03-25 08:49:50 51°21.887 2°37.515 4.2 234 6.1 103050 68
2002-03-25 08:49:55 51°21.906 2°37.512 4.5 236 6.1 103050 68
2002-03-25 08:49:59 51°21.922 2°37.508 4.6 234 6.1 103050 68
2002-03-25 08:50:04 51°21.941 2°37.504 4.4 237 6.1 103050 68
2002-03-25 08:50:10 51°21.964 2°37.499 4.4 232 6.1 103050 68
2002-03-25 08:50:15 51°21.984 2°37.496 4 233 6.1 103050 68
2002-03-25 08:50:20 51°22.003 2°37.492 4.1 229 6.1 103050 67
2002-03-25 08:50:25 51°22.023 2°37.489 4.4 235 6.1 103050 67
2002-03-25 08:50:30 51°22.042 2°37.485 3.7 230 6.1 103050 68
2002-03-25 08:50:35 51°22.061 2°37.481 4.1 240 6.1 103050 68
2002-03-25 08:50:40 51°22.08 2°37.475 4.1 237 6.1 103050 67
2002-03-25 08:50:44 51°22.096 2°37.472 3.7 228 6.1 103050 67
2002-03-25 08:50:50 51°22.119 2°37.466 4 230 6.1 103050 67
2002-03-25 08:50:55 51°22.138 2°37.461 3.9 234 6.1 103050 67
2002-03-25 08:50:59 51°22.154 2°37.456 3.9 229 6.1 103050 67
2002-03-25 08:51:04 51°22.173 2°37.452 3.9 231 6.1 103050 67
2002-03-25 08:51:10 51°22.196 2°37.445 4 231 6.1 103050 68
2002-03-25 08:51:15 51°22.216 2°37.441 4 242 6.1 103050 68
2002-03-25 08:51:20 51°22.235 2°37.434 4 232 6.1 103050 68
2002-03-25 08:51:24 51°22.25 2°37.431 3.4 236 6.1 103050 68
2002-03-25 08:51:30 51°22.273 2°37.423 3.9 235 6.1 103050 67
2002-03-25 08:51:35 51°22.293 2°37.42 3.7 248 6.1 103050 67
2002-03-25 08:51:39 51°22.308 2°37.413 4.1 244 6.1 103050 67
2002-03-25 08:51:44 51°22.327 2°37.408 4.5 233 6.1 103050 67
2002-03-25 08:51:50 51°22.35 2°37.401 4.4 244 6.1 103050 67
2002-03-25 08:51:55 51°22.369 2°37.396 4.1 230 6.1 103050 67
2002-03-25 08:52:00 51°22.388 2°37.39 4.2 240 6.2 103050 68
2002-03-25 08:52:05 51°22.407 2°37.383 4.1 226 6.2 103050 68
2002-03-25 08:52:10 51°22.426 2°37.377 4 232 6.1 103050 68
2002-03-25 08:52:15 51°22.444 2°37.367 4.5 221 6.1 103050 68
2002-03-25 08:52:19 51°22.459 2°37.362 4.6 226 6.2 103050 68
2002-03-25 08:52:24 51°22.477 2°37.35 4 223 6.2 103050 68
2002-03-25 08:52:30 51°22.499 2°37.339 3.9 226 6.2 103040 68
2002-03-25 08:52:35 51°22.516 2°37.325 3.6 220 6.2 103040 68
2002-03-25 08:52:39 51°22.53 2°37.315 4.1 223 6.2 103050 68
2002-03-25 08:52:44 51°22.546 2°37.3 4 236 6.2 103050 68
2002-03-25 08:52:48 51°22.558 2°37.287 3.7 230 6.2 103050 68
2002-03-25 08:52:54 51°22.577 2°37.268 4.3 246 6.2 103050 68
2002-03-25 08:52:59 51°22.592 2°37.25 4.2 232 6.2 103050 68
2002-03-25 08:53:04 51°22.607 2°37.234 4.4 253 6.2 103050 68
2002-03-25 08:53:09 51°22.621 2°37.214 4.6 241 6.2 103050 68
2002-03-25 08:53:14 51°22.636 2°37.196 5 253 6.2 103050 68
2002-03-25 08:53:19 51°22.648 2°37.175 4.8 251 6.2 103050 68
2002-03-25 08:53:25 51°22.666 2°37.153 5 255 6.2 103050 68
2002-03-25 08:53:29 51°22.676 2°37.135 5.3 260 6.2 103050 68
2002-03-25 08:53:34 51°22.689 2°37.115 4.5 254 6.2 103050 68
2002-03-25 08:53:39 51°22.701 2°37.093 5.2 260 6.2 103050 69
2002-03-25 08:53:45 51°22.716 2°37.067 4.9 252 6.2 103050 69
2002-03-25 08:53:49 51°22.725 2°37.049 4.5 255 6.3 103050 69
2002-03-25 08:53:54 51°22.736 2°37.027 5 255 6.3 103050 69
2002-03-25 08:53:59 51°22.748 2°37.004 5.4 256 6.3 103050 69
2002-03-25 08:54:04 51°22.758 2°36.98 5.5 265 6.3 103050 69
2002-03-25 08:54:09 51°22.768 2°36.956 5.6 263 6.3 103050 69
2002-03-25 08:54:14 51°22.778 2°36.932 5.1 260 6.3 103050 69
2002-03-25 08:54:20 51°22.788 2°36.902 5.8 264 6.3 103050 69
2002-03-25 08:54:25 51°22.797 2°36.877 5.6 261 6.3 103050 69
2002-03-25 08:54:29 51°22.804 2°36.856 5 261 6.3 103040 69
2002-03-25 08:54:34 51°22.812 2°36.83 5.4 258 6.3 103040 69
2002-03-25 08:54:39 51°22.82 2°36.805 5.9 259 6.3 103040 70
2002-03-25 08:54:45 51°22.83 2°36.774 5.5 255 6.3 103040 70
2002-03-25 08:54:49 51°22.836 2°36.753 5.2 259 6.3 103040 69
2002-03-25 08:54:54 51°22.844 2°36.727 4.2 254 6.3 103040 69
2002-03-25 08:54:59 51°22.853 2°36.702 4.9 255 6.3 103040 69
2002-03-25 08:55:04 51°22.861 2°36.676 5.4 244 6.3 103040 69
2002-03-25 08:55:09 51°22.87 2°36.651 5.7 254 6.3 103040 69
2002-03-25 08:55:14 51°22.878 2°36.624 5.9 252 6.3 103040 69
2002-03-25 08:55:19 51°22.886 2°36.599 5.8 255 6.3 103040 69
2002-03-25 08:55:24 51°22.893 2°36.573 5.2 255 6.3 103040 69
2002-03-25 08:55:29 51°22.902 2°36.547 5.2 255 6.3 103050 69
2002-03-25 08:55:34 51°22.909 2°36.52 4.9 251 6.3 103050 69
2002-03-25 08:55:39 51°22.917 2°36.495 5.7 256 6.3 103040 69
2002-03-25 08:55:44 51°22.924 2°36.468 5.7 256 6.3 103040 69
2002-03-25 08:55:48 51°22.929 2°36.447 6.2 250 6.3 103040 69
2002-03-25 08:55:54 51°22.937 2°36.414 6.2 260 6.3 103040 69
2002-03-25 08:56:00 51°22.945 2°36.382 6.1 259 6.3 103040 69
2002-03-25 08:56:04 51°22.949 2°36.36 6.4 257 6.3 103040 69
2002-03-25 08:56:09 51°22.955 2°36.334 5.9 256 6.3 103040 69
2002-03-25 08:56:14 51°22.96 2°36.306 6.5 257 6.3 103040 69
2002-03-25 08:56:19 51°22.965 2°36.279 6.4 260 6.3 103030 69
2002-03-25 08:56:24 51°22.969 2°36.251 6.6 266 6.3 103030 69
2002-03-25 08:56:29 51°22.974 2°36.224 6.4 261 6.3 103030 68
2002-03-25 08:56:35 51°22.978 2°36.19 6.3 264 6.3 103030 68
2002-03-25 08:56:39 51°22.981 2°36.168 6.1 262 6.2 103040 68
2002-03-25 08:56:44 51°22.985 2°36.14 6.3 262 6.2 103040 68
2002-03-25 08:56:49 51°22.988 2°36.112 6.4 260 6.2 103040 68
2002-03-25 08:56:54 51°22.99 2°36.084 7.1 255 6.2 103040 68
2002-03-25 08:56:59 51°22.993 2°36.056 6.9 263 6.2 103040 67
2002-03-25 08:57:04 51°22.995 2°36.027 6.9 264 6.2 103040 67
2002-03-25 08:57:09 51°22.998 2°35.999 7.4 268 6.2 103040 68
2002-03-25 08:57:14 51°23 2°35.971 8.6 265 6.2 103040 68
2002-03-25 08:57:19 51°23.003 2°35.943 7.8 268 6.2 103040 69
2002-03-25 08:57:24 51°23.005 2°35.914 7.9 264 6.2 103040 69
2002-03-25 08:57:29 51°23.007 2°35.886 8.1 269 6.3 103040 68
2002-03-25 08:57:35 51°23.009 2°35.852 7.8 267 6.3 103040 68
2002-03-25 08:57:40 51°23.01 2°35.824 7.7 267 6.3 103030 68
2002-03-25 08:57:45 51°23.012 2°35.796 7.8 269 6.3 103030 68
2002-03-25 08:57:49 51°23.013 2°35.773 7.8 269 6.2 103030 66
2002-03-25 08:57:55 51°23.016 2°35.739 7.2 267 6.2 103030 66
2002-03-25 08:57:59 51°23.017 2°35.717 7.5 266 6.2 103040 65
2002-03-25 08:58:05 51°23.019 2°35.683 7 264 6.2 103040 65
2002-03-25 08:58:09 51°23.02 2°35.66 7.6 265 6.2 103040 65
2002-03-25 08:58:14 51°23.021 2°35.631 6.9 265 6.2 103040 65
2002-03-25 08:58:20 51°23.023 2°35.598 7.2 267 6.2 103040 65
2002-03-25 08:58:24 51°23.024 2°35.575 7.3 263 6.2 103040 65
2002-03-25 08:58:30 51°23.026 2°35.541 7.1 268 6.2 103030 64
2002-03-25 08:58:34 51°23.027 2°35.518 7.8 264 6.2 103030 64
2002-03-25 08:58:39 51°23.028 2°35.49 7.4 267 6.2 103040 66
2002-03-25 08:58:45 51°23.03 2°35.456 8.1 260 6.2 103040 66
2002-03-25 08:58:50 51°23.032 2°35.428 7.6 264 6.2 103040 66
2002-03-25 08:58:55 51°23.033 2°35.4 7.7 261 6.2 103040 66
2002-03-25 08:59:00 51°23.034 2°35.372 7.8 265 6.2 103040 67
2002-03-25 08:59:05 51°23.035 2°35.344 7.1 265 6.2 103040 67
2002-03-25 08:59:10 51°23.038 2°35.315 7.5 266 6.2 103040 67
2002-03-25 08:59:14 51°23.039 2°35.292 7.1 265 6.2 103040 67
2002-03-25 08:59:19 51°23.041 2°35.264 7 263 6.3 103030 67
2002-03-25 08:59:26 51°23.043 2°35.224 7 258 6.3 103030 67
2002-03-25 08:59:29 51°23.045 2°35.207 6.6 265 6.3 103030 67
2002-03-25 08:59:34 51°23.046 2°35.179 7.3 267 6.3 103030 67
2002-03-25 08:59:39 51°23.048 2°35.151 7.6 266 6.2 103030 67
2002-03-25 08:59:44 51°23.05 2°35.122 7.1 263 6.2 103030 67
2002-03-25 08:59:50 51°23.052 2°35.088 7.3 264 6.2 103030 67
2002-03-25 08:59:55 51°23.053 2°35.06 7.6 262 6.2 103030 67
2002-03-25 09:00:00 51°23.055 2°35.032 7.8 262 6.3 103030 68
2002-03-25 09:00:04 51°23.056 2°35.01 7.7 263 6.3 103030 68
2002-03-25 09:00:10 51°23.058 2°34.976 8 265 6.3 103030 68
2002-03-25 09:00:15 51°23.06 2°34.948 7.7 265 6.3 103030 68
2002-03-25 09:00:19 51°23.061 2°34.925 7.6 264 6.3 103040 68
2002-03-25 09:00:24 51°23.063 2°34.897 7.5 268 6.3 103040 68
2002-03-25 09:00:30 51°23.065 2°34.863 7.6 265 6.3 103030 67
2002-03-25 09:00:35 51°23.067 2°34.835 7 266 6.3 103030 67
2002-03-25 09:00:40 51°23.069 2°34.806 6.8 267 6.2 103030 66
2002-03-25 09:00:45 51°23.071 2°34.778 7.2 266 6.2 103030 66
2002-03-25 09:00:50 51°23.072 2°34.75 6.3 267 6.2 103040 66
2002-03-25 09:00:55 51°23.074 2°34.722 7.4 260 6.2 103040 66
2002-03-25 09:00:59 51°23.076 2°34.699 7.6 266 6.2 103030 66
2002-03-25 09:01:04 51°23.077 2°34.671 7.2 267 6.2 103030 66
2002-03-25 09:01:10 51°23.079 2°34.637 6.9 268 6.2 103030 66
2002-03-25 09:01:15 51°23.081 2°34.609 7 267 6.2 103030 66
2002-03-25 09:01:20 51°23.083 2°34.581 6.8 267 6.2 103030 66
2002-03-25 09:01:24 51°23.084 2°34.558 6.5 267 6.2 103040 66
2002-03-25 09:01:29 51°23.086 2°34.53 6.5 269 6.2 103040 66
2002-03-25 09:01:35 51°23.088 2°34.496 6.3 269 6.3 103040 66
2002-03-25 09:01:40 51°23.09 2°34.467 6.6 266 6.3 103040 66
2002-03-25 09:01:44 51°23.092 2°34.445 6.3 270 6.3 103030 68
2002-03-25 09:01:49 51°23.093 2°34.416 6.1 264 6.3 103030 68